Starlink 3856

operational
NORAD ID: 52459 Int'l Des: 2022-049 Owner: SPXS Country: US Constellation: starlink
LEOCIRCULAR

Über Starlink 3856

Beschreibung wird geladen...

Live-Position

3D-Globus wird geladen...

Nächste Überflüge

Höhenverlauf

Altitude vs Time

uPlot chart will show altitude changes over time

Zweizeiliger Elementsatz

1 52459U 22049J 25258.33857740 .00000050 00000-0 21205-4 0 9990
2 52459 53.2167 126.3023 0001388 84.6366 275.4785 15.08837253185779
Epoch: 15. Sept. 2025 • Age: 22 hours

Aktueller Status

Höhe 559.0 km
Geschwindigkeit 7.58 km/s
Subsatellitenpunkt -52.64°S, 40.42°W
Startdatum 6. Mai 2022
Alter 3.3 years
Typ internet

Technische Details

Klassifizierung Payload
Masse 297.00 kg
Trockenmasse 220.00 kg
Gesamtmasse 297.00 kg
Länge 0.20 m
Durchmesser 2.80 m
Spannweite 9.00 m
Form Box + pan
Hersteller SPXS
Bus-Typ Starlink
Phasenstatus In Orbit
Besitzer/Staat SPXS/US

Große Konstellationen

Loading constellations...